Flag for Germany Weather past 2 weeks in Siegburg, North Rhine-Westphalia, Germany

Now
62 °F

Overcast.


Feels Like: 62 °F
Forecast: 53 / 64 °F
Wind: 8 mph from Southwest

Location: Bonn-Hangelar

Current Time: Aug 30, 2014 at 8:49:34 PM

Latest Report: Aug 30, 2014 at 7:00 PM


Visibility: 19 mi

Pressure: 30.00 "Hg

Humidity: 83%

Dew point: 57 °F

Location of SiegburgLocation

Historic Weather in Siegburg — Graph

°F

Siegburg temperature yesterday

Maximum temperature yesterday: 66 °F (at 6:00 PM)
Minimum temperature yesterday: 58 °F (at 6:00 AM)
Average temperature yesterday: 61 °F

Past Weeks' High & Low Weather Summary

 TemperatureHumidityPressure
High70 °F (Aug 28, 6:00 PM)99% (Aug 26, 4:00 AM)30.13 "Hg (Aug 26, 4:00 AM)
Low47 °F (Aug 21, 6:00 AM)51% (Aug 22, 4:00 PM)29.61 "Hg (Aug 26, 6:00 AM)
Average57 °F82%29.95 "Hg
* Reported Aug 15 7:00 PM — Aug 30 7:00 PM, Siegburg, Weather by CustomWeather, © 2014

Note: Actual official high and low records may vary slightly from our data, if they occured in-between our weather recording intervals... More about our weather records

Advertising

Siegburg weather history for previous 24 hours

 ConditionsComfort  
Time TempWeatherWind HumidityBarometerVisibility
7:00 PM
Aug 30
62 °FOvercast.8 mph83%30.00 "Hg19 mi
6:00 PM62 °FPartly sunny.9 mph83%30.01 "Hg19 mi
5:00 PM62 °FOvercast.8 mph83%30.02 "Hg25 mi
4:00 PM62 °FOvercast.8 mph83%30.03 "Hg25 mi
3:00 PM63 °FOvercast.9 mph81%30.03 "Hg19 mi
2:00 PM65 °FOvercast.10 mph76%30.03 "Hg25 mi
1:00 PM62 °FOvercast.8 mph85%30.04 "Hg16 mi
12:00 PM61 °FOvercast.8 mph84%30.04 "Hg25 mi
11:00 AM60 °FOvercast.8 mph82%30.04 "Hg16 mi
10:00 AM60 °FOvercast.7 mph84%30.04 "Hg19 mi
9:00 AM60 °FOvercast.9 mph82%30.03 "Hg19 mi
8:00 AM58 °FPartly sunny.8 mph84%30.03 "Hg19 mi
7:00 AM58 °FPartly sunny.7 mph84%30.02 "Hg25 mi
6:00 AM58 °FOvercast.8 mph82%30.03 "Hg25 mi
5:00 AM58 °FOvercast.7 mph84%30.03 "Hg25 mi
4:00 AM58 °FOvercast.6 mph84%30.04 "Hg25 mi
3:00 AM58 °FPassing clouds.6 mph84%30.05 "Hg25 mi
2:00 AM57 °FClear.6 mph87%30.05 "Hg22 mi
1:00 AM58 °FOvercast.6 mph86%30.05 "Hg22 mi
12:00 AM60 °FOvercast.6 mph82%30.05 "Hg25 mi
11:00 PM
Aug 29
60 °FLow clouds.3 mph83%30.05 "Hg28 mi
9:00 PM62 °FOvercast.3 mph75%30.02 "Hg25 mi
8:00 PM63 °FOvercast.3 mph71%30.01 "Hg25 mi
Weather by CustomWeather, © 2014

See weather overviewHow to use our weather pages